Flag for Germany Weather past 2 weeks in Monheim am Rhein, North Rhine-Westphalia, Germany

Now
34 °F

Fog.


Feels Like: 31 °F
Forecast: 30 / 36 °F
Wind: 3 mph from Southwest

Location: Duesseldorf

Current Time: Dec 26, 2014 at 9:47:50 AM

Latest Report: Dec 26, 2014 at 9:20 AM


Visibility: 4 mi

Pressure: 30.39 "Hg

Humidity: 100%

Dew point: 34 °F

Location of Monheim am RheinLocation

Historic Weather in Monheim am Rhein — Graph

°F

Monheim am Rhein temperature yesterday

Maximum temperature yesterday: 43 °F (at 10:50 AM)
Minimum temperature yesterday: 36 °F (at 8:50 PM)
Average temperature yesterday: 40 °F

Past Weeks' High & Low Weather Summary

 TemperatureHumidityPressure
High55 °F (Dec 18, 4:50 PM)100% (Dec 14, 3:50 AM)30.39 "Hg (Dec 14, 3:50 AM)
Low30 °F (Dec 14, 5:50 AM)70% (Dec 15, 7:50 AM)29.42 "Hg (Dec 12, 12:50 PM)
Average44 °F87%29.97 "Hg
* Reported Dec 11 8:20 AM — Dec 26 8:20 AM, Monheim am Rhein, Weather by CustomWeather, © 2014

Note: Actual official high and low records may vary slightly from our data, if they occured in-between our weather recording intervals... More about our weather records

Advertising

Monheim am Rhein weather history for previous 24 hours

 ConditionsComfort  
Time TempWeatherWind HumidityBarometerVisibility
8:20 AM
Dec 26
34 °FFog.1 mph100%30.39 "Hg4 mi
7:50 AM36 °FPassing clouds.5 mph100%30.39 "Hg4 mi
7:20 AM36 °FPassing clouds.2 mph100%30.39 "Hg4 mi
6:50 AM36 °FPartly cloudy.5 mph100%30.39 "Hg4 mi
6:20 AM36 °FPartly cloudy.1 mph100%30.39 "Hg5 mi
5:50 AM36 °FPartly cloudy.5 mph100%30.39 "HgN/A
5:20 AM34 °FPartly cloudy.6 mph100%30.39 "HgN/A
4:50 AM36 °FPassing clouds.6 mph100%30.39 "HgN/A
4:20 AM34 °FPartly cloudy.6 mph100%30.39 "HgN/A
3:50 AM36 °FPassing clouds.3 mph100%30.36 "HgN/A
3:20 AM36 °FPassing clouds.2 mph100%30.39 "HgN/A
2:50 AM34 °FPassing clouds.3 mph100%30.39 "HgN/A
2:20 AM32 °FFog.2 mph100%30.39 "HgN/A
1:50 AM32 °FFog.2 mph93%30.36 "HgN/A
1:20 AM32 °FPassing clouds.1 mph93%30.36 "HgN/A
12:50 AM36 °FPassing clouds.6 mph93%30.36 "HgN/A
12:20 AM36 °FPassing clouds.6 mph93%30.36 "HgN/A
11:20 PM
Dec 25
36 °FPassing clouds.6 mph93%30.36 "HgN/A
10:50 PM37 °FPassing clouds.7 mph93%30.36 "HgN/A
10:20 PM37 °FPartly cloudy.8 mph93%30.36 "HgN/A
9:50 PM37 °FPassing clouds.8 mph93%30.36 "HgN/A
9:20 PM37 °FPassing clouds.6 mph93%30.33 "HgN/A
8:50 PM36 °FClear.7 mph100%30.33 "Hg10 mi
8:20 PM37 °FClear.7 mph87%30.33 "Hg10 mi
7:50 PM37 °FClear.7 mph93%30.30 "Hg10 mi
7:20 PM37 °FClear.8 mph93%30.30 "Hg10 mi
6:50 PM39 °FClear.8 mph87%30.30 "Hg10 mi
6:20 PM39 °FClear.7 mph93%30.30 "Hg10 mi
5:50 PM39 °FClear.8 mph87%30.27 "Hg10 mi
5:20 PM41 °FPassing clouds.10 mph87%30.27 "HgN/A
4:20 PM39 °FPartly sunny.5 mph93%30.24 "HgN/A
3:50 PM39 °FRain showers. Partly sunny.18 mph93%30.24 "Hg2 mi
3:20 PM41 °FPartly sunny.7 mph87%30.24 "HgN/A
2:50 PM41 °FPartly sunny.8 mph87%30.24 "HgN/A
2:20 PM39 °FPartly sunny.8 mph93%30.24 "HgN/A
1:50 PM41 °FPartly sunny.13 mph87%30.24 "HgN/A
1:20 PM41 °FRain showers. Broken clouds.17 mph87%30.21 "Hg4 mi
12:50 PM43 °FSprinkles. Partly sunny.16 mph81%30.21 "HgN/A
12:20 PM43 °FPartly sunny.15 mph81%30.21 "HgN/A
11:50 AM43 °FScattered showers. Partly sunny.14 mph81%30.21 "HgN/A
11:20 AM43 °FPartly sunny.13 mph81%30.21 "HgN/A
10:50 AM43 °FPartly sunny.14 mph81%30.21 "HgN/A
10:20 AM41 °FPartly sunny.14 mph81%30.21 "HgN/A
9:50 AM41 °FBroken clouds.15 mph81%30.21 "HgN/A
9:20 AM41 °FPartly sunny.13 mph81%30.18 "HgN/A
Weather by CustomWeather, © 2014

See weather overviewHow to use our weather pages